Lexington Weather

Lexington, Massachusetts, USA

34°F
4/16/2021 11:06am 
  • Lexington Conditions: Light snow, Mist, Overcast
  • Temperature: 34.0°F / 1.1°CWarmer 0.2°F than last hour.
  • Dew Point: 32.7°FIncreased 0.2°Fsince last hour.
  • Relative Humidity: 95
  • Wind: Wind from N N 2 mph, 10-min avg: 2 mph, gust: 4 mph
  • Barometer: 29.46 inFalling 0.03  inHg/hr Falling Slowly
  • Visibility: 1 mile
  • Snow Today: 1.7 in
  •   

Regional Weather Roundup
for Boston / Norton, MA

        
000
ASUS41 KBOX 101004
RWRBOX

REGIONAL WEATHER ROUNDUP
NATIONAL WEATHER SERVICE BOSTON/NORTON MA
600 AM EDT SAT APR 10 2021

NOTE:  "FAIR" INDICATES FEW OR NO CLOUDS BELOW 12,000 FEET WITH NO 
SIGNIFICANT WEATHER AND/OR OBSTRUCTIONS TO VISIBILITY.

MAZALL-101100-
EASTERN MASSACHUSETTS
  
CITY           SKY/WX    TMP DP  RH WIND       PRES   REMARKS
BOSTON         MOCLDY    49  42  77 SW10      30.03F                  
BEVERLY        NOT AVBL                                               
LAWRENCE       PTCLDY    47  42  83 S3        30.03S                  
BEDFORD        CLOUDY    48  43  82 CALM      30.01F                  
BLUE HILL        N/A     44  42  93 S10       30.01F                  
NORWOOD        CLOUDY    46  42  86 SE3       30.03F                  
MARSHFIELD     CLOUDY    45  45 100 SW7       30.04S                  
PLYMOUTH       FOG       43  42  97 SW7       30.05S VSB 3/4          
TAUNTON        CLOUDY    46  44  93 S3        30.05S                  
NEW BEDFORD    MOCLDY    45  44  97 SW3       30.05F                  
$$

MAZALL-101100-
CAPE COD AND THE ISLANDS
  
CITY           SKY/WX    TMP DP  RH WIND       PRES   REMARKS
FALMOUTH       FOG       43  45 100 W12       30.07S VSB 1/2          
HYANNIS        CLOUDY    44  43  96 W6        30.05S                  
CHATHAM        FOG       44  42  93 SW8       30.08R VSB 3/4          
PROVINCETOWN   LGT RAIN  42  42 100 S12       30.06  VSB 1/4          
NANTUCKET      FOG       41  41 100 W8        30.08R VSB 1/2          
MARTHAS VNYRD  CLOUDY    43  43 100 SW5       30.07S FOG              
$$
 
MAZALL-101100-
CENTRAL AND WESTERN MASSACHUSETTS
  
CITY           SKY/WX    TMP DP  RH WIND       PRES   REMARKS
WORCESTER      CLOUDY    52  40  63 W12       30.02S                  
FITCHBURG      CLOUDY    55  44  66 NW3       30.01F                  
ORANGE         MOCLDY    49  47  93 CALM      30.03F                  
SPRINGFIELD    PTCLDY    48  43  83 CALM      30.02F                  
WESTFIELD      CLEAR     50  44  80 CALM      30.02F                  
NORTH ADAMS    CLEAR     45  40  82 CALM      30.01F                  
PITTSFIELD     PTCLDY    45  40  82 CALM      29.99F                  
$$
 
RIZALL-101100-
RHODE ISLAND
  
CITY           SKY/WX    TMP DP  RH WIND       PRES   REMARKS
PROVIDENCE     LGT RAIN  48  45  89 S6        30.06F                  
NEWPORT        CLOUDY    45  44  97 W3        30.05F                  
BLOCK ISLAND   CLOUDY    44  43  96 SW8       30.07F                  
SMITHFIELD     LGT RAIN  46  46 100 VRB5      30.04F                  
WESTERLY       CLOUDY    44  44 100 SW3       30.06F                  
$$
 
CTZALL-101100-
CONNECTICUT
  
CITY           SKY/WX    TMP DP  RH WIND       PRES   REMARKS
BRADLEY INTL   MOCLDY    50  43  77 SE7       30.02F                  
HARTFORD       CLOUDY    50  44  80 S8        30.04F                  
BRIDGEPORT     CLOUDY    48  46  93 S3        30.05F                  
DANBURY        CLOUDY    52  45  77 CALM      30.04F                  
GROTON         CLOUDY    46  44  93 SW6       30.05F                  
NEW HAVEN      CLOUDY    49  47  93 S3        30.05F                  
CHESTER        CLOUDY    46  46 100 CALM      30.05F                  
MERIDEN        MOCLDY    48  44  86 SE5       30.05F                  
WILLIMANTIC    MOCLDY    48  43  82 CALM      30.04F                  
OXFORD         CLOUDY    48  48 100 CALM      30.04F                  
$$

MEZ002-015-021-024-NHZ003-005-008-011-012-014-VTZ005-008-101100-
NORTHERN NEW ENGLAND
  
CITY           SKY/WX    TMP DP  RH WIND       PRES   REMARKS
PORTLAND ME    PTCLDY    39  39 100 CALM      30.00F                  
BANGOR ME      PTCLDY    43  40  89 CALM      30.00S                  
CONCORD NH     PTCLDY    40  38  93 CALM      30.01F                  
MANCHESTER NH  MOCLDY    46  41  82 CALM      29.99F                  
NASHUA NH      CLOUDY    44  44 100 CALM      30.01F                  
PORTSMOUTH NH  PTCLDY    41  41  97 CALM      30.02S                  
JAFFREY NH     CLOUDY    50  45  83 S5        30.02F                  
KEENE NH       CLOUDY    49  47  93 CALM      30.02F                  
BURLINGTON VT  CLOUDY    56  48  74 S5        29.97S                  
MT. WASHINGTON PTCLDY    39  34  81 W15         N/A  WCI  31          
$$

NYZ052-076-101100-
EASTERN NEW YORK
  
CITY           SKY/WX    TMP DP  RH WIND       PRES   REMARKS
ALBANY         PTCLDY    50  43  77 SE6       30.00F                  
NEW YORK CITY  CLOUDY    52  46  80 E5        30.02F                  
$$
 
ANZALL-101100-
MARINE OBSERVATIONS
  
STATION/POSITION TIME  TEMP    WIND        PRES    VSBY  WAVE
                       AIR SEA DIR/SP/G                  HT/PER
                 (UTC) (F)     (DEG/KT/KT) (MB)    (MI)  (FT/S)
BOSTON BUOY      0940   45 44  190/  6/  8 1017.7F
BUZZARDS BAY     0900          250/ 12/ 13 1019.3F
NANTUCKET SOUND  0940      46                N/A
MASS BAY-STELLWA 0904   45     210/  8/  8 1016.2F  1 7/8  4/11
ISLE OF SHOALS   0900   48     210/ 10/ 10 1015.9F
S OF BLOCK IS    0926      46                N/A           3/10
$$

......................KEY.........................
  SKY/WX - SKY CONDITION/PRESENT WEATHER
  TMP    - TEMPERATURE IN FAHRENHEIT
  DWPT   - DEWPOINT IN FAHRENHEIT
  RH     - RELATIVE HUMIDITY IN PERCENT
  WIND   - DIRECTION AND SPEED IN MPH
  PRES   - MEAN SEA LEVEL PRESSURE IN INCHES OF HG
  WCI    - WIND CHILL INDEX
  VSB    - VISIBILITY IN MILES
  HX     - HEAT INDEX
  TC     - TEMPERATURE IN CELSIUS
  VRB    - VARIABLE WIND DIRECTION
  N/A    - NOT AVAILABLE
  
      

Other recent Regional Weather Roundups

Fri Apr 16, 10:05am

Fri Apr 16, 9:04am

Fri Apr 16, 8:04am

Fri Apr 16, 7:04am

Fri Apr 16, 6:04am

Fri Apr 16, 5:04am

Fri Apr 16, 4:04am

Fri Apr 16, 3:04am

Fri Apr 16, 2:04am

Fri Apr 16, 1:04am

Fri Apr 16, 12:04am

Thu Apr 15, 11:05pm

Thu Apr 15, 10:04pm

Thu Apr 15, 9:04pm

Thu Apr 15, 8:04pm

Thu Apr 15, 7:05pm

Thu Apr 15, 6:04pm

Thu Apr 15, 5:05pm

Thu Apr 15, 4:04pm

Thu Apr 15, 3:05pm

Thu Apr 15, 2:04pm

Thu Apr 15, 1:05pm

Thu Apr 15, 12:04pm

Thu Apr 15, 11:04am

Thu Apr 15, 10:05am

Thu Apr 15, 9:04am

Thu Apr 15, 8:04am

Thu Apr 15, 7:04am

Thu Apr 15, 6:04am

Thu Apr 15, 5:04am

Thu Apr 15, 4:04am

Thu Apr 15, 3:04am

Thu Apr 15, 2:04am

Thu Apr 15, 1:04am

Thu Apr 15, 12:04am

Wed Apr 14, 11:04pm

Wed Apr 14, 10:04pm

Wed Apr 14, 9:04pm

Wed Apr 14, 8:04pm

Wed Apr 14, 7:04pm

Wed Apr 14, 6:04pm

Wed Apr 14, 5:05pm

Wed Apr 14, 4:04pm

Wed Apr 14, 3:05pm

Wed Apr 14, 2:04pm

Wed Apr 14, 1:05pm

Wed Apr 14, 12:04pm

Wed Apr 14, 11:04am

Wed Apr 14, 10:04am

Wed Apr 14, 9:04am

Wed Apr 14, 8:04am

Wed Apr 14, 7:04am

Wed Apr 14, 6:04am

Wed Apr 14, 5:04am

Wed Apr 14, 4:04am

Wed Apr 14, 3:04am

Wed Apr 14, 2:04am

Wed Apr 14, 1:04am

Wed Apr 14, 12:04am

Tue Apr 13, 11:04pm

Tue Apr 13, 10:05pm

Tue Apr 13, 9:05pm

Tue Apr 13, 8:05pm

Tue Apr 13, 7:04pm

Tue Apr 13, 6:04pm

Tue Apr 13, 5:05pm

Tue Apr 13, 4:04pm

Tue Apr 13, 3:04pm

Tue Apr 13, 2:05pm

Tue Apr 13, 1:04pm

Tue Apr 13, 12:05pm

Tue Apr 13, 11:05am

Tue Apr 13, 10:04am

Tue Apr 13, 9:04am

Tue Apr 13, 8:04am

Tue Apr 13, 7:04am

Tue Apr 13, 6:04am

Tue Apr 13, 5:04am

Tue Apr 13, 4:04am

Tue Apr 13, 3:04am

Tue Apr 13, 2:04am

Tue Apr 13, 1:04am

Tue Apr 13, 12:05am

Mon Apr 12, 11:04pm

Mon Apr 12, 10:04pm

Mon Apr 12, 9:04pm

Mon Apr 12, 8:04pm

Mon Apr 12, 7:05pm

Mon Apr 12, 6:04pm

Mon Apr 12, 5:04pm

Mon Apr 12, 4:04pm

Mon Apr 12, 3:05pm

Mon Apr 12, 2:04pm

Mon Apr 12, 1:05pm

Mon Apr 12, 12:04pm

Mon Apr 12, 11:04am

Mon Apr 12, 10:04am

Mon Apr 12, 9:04am

Mon Apr 12, 8:04am

Mon Apr 12, 7:04am

Mon Apr 12, 6:04am

Mon Apr 12, 5:04am

Mon Apr 12, 4:04am

Mon Apr 12, 3:04am

Mon Apr 12, 2:04am

Mon Apr 12, 1:05am

Mon Apr 12, 12:04am

Sun Apr 11, 11:04pm

Sun Apr 11, 10:04pm

Sun Apr 11, 9:04pm

Sun Apr 11, 8:04pm

Sun Apr 11, 7:04pm

Sun Apr 11, 6:05pm

Sun Apr 11, 5:05pm

Sun Apr 11, 4:04pm

Sun Apr 11, 3:05pm

Sun Apr 11, 2:05pm

Sun Apr 11, 1:05pm

Sun Apr 11, 12:04pm

Sun Apr 11, 11:05am

Sun Apr 11, 10:05am

Sun Apr 11, 9:04am

Sun Apr 11, 8:04am

Sun Apr 11, 7:04am

Sun Apr 11, 6:04am

Sun Apr 11, 5:04am

Sun Apr 11, 4:04am

Sun Apr 11, 3:04am

Sun Apr 11, 2:04am

Sun Apr 11, 1:05am

Sun Apr 11, 12:04am

Sat Apr 10, 11:05pm

Sat Apr 10, 10:04pm

Sat Apr 10, 9:04pm

Sat Apr 10, 8:04pm

Sat Apr 10, 7:05pm

Sat Apr 10, 6:04pm

Sat Apr 10, 5:04pm

Sat Apr 10, 4:04pm

Sat Apr 10, 3:04pm

Sat Apr 10, 2:05pm

Sat Apr 10, 1:04pm

Sat Apr 10, 12:04pm

Sat Apr 10, 11:04am

Sat Apr 10, 10:04am

Sat Apr 10, 9:04am

Sat Apr 10, 8:04am

Sat Apr 10, 7:04am

Sat Apr 10, 5:04am

Sat Apr 10, 4:04am

Sat Apr 10, 3:04am

Sat Apr 10, 2:04am

Sat Apr 10, 1:05am

Sat Apr 10, 12:04am

Fri Apr 9, 11:04pm

Fri Apr 9, 10:05pm

Fri Apr 9, 9:04pm

Fri Apr 9, 8:05pm

Fri Apr 9, 7:05pm

Fri Apr 9, 6:04pm

Fri Apr 9, 5:04pm

Fri Apr 9, 4:05pm

Fri Apr 9, 3:05pm

Fri Apr 9, 2:04pm

Fri Apr 9, 1:04pm

Fri Apr 9, 12:04pm

Fri Apr 9, 11:05am

Meta data:

ID: a3ddb6ca-0cea-4641-a6cc-ba796f060376
Link: https://api.weather.gov/products/a3ddb6ca-0cea-4641-a6cc-ba796f060376